Location: Newark
(45.4426°N, 12.3253°E)
Time: 15:54:43
(UTC+00:00)

OTV 5 (USA 277) - Pass Details

Date: 01 November 2019
Orbit: 310 x 324 km, 54.5° (Epoch: 17 October)

Event Time Altitude Azimuth Distance (km) Brightness Sun altitude
Rises 16:26:44 0° 223° (SW) 2,047 ? -5.5°
Reaches altitude 10° 16:28:42 10° 219° (SW) 1,223 ? -5.9°
Maximum altitude 16:31:21 53° 140° (SE) 401 ? -6.3°
Drops below altitude 10° 16:34:03 10° 62° (ENE) 1,237 ? -6.8°
Enters shadow 16:34:15 - 61° (ENE) 1,322 ? -6.8°
